User: anonymous   Login
Location: Unspecified
(0.0000°N, 0.0000°E)
Time: 02:12:35
(UTC+01:00)
Language:

Landsat 4 - Orbit

View from above orbital plane
View from above orbital plane
View from above satellite
View from above satellite

Ground track
Ground track

The orbit data is extracted from the following two-line orbital elements,

1 13367U 82072A   14326.81842412  .00005474  00000-0  32763-3 0  7964
2 13367 098.1948 041.2066 0015440 142.2756 359.0246 15.11396849743168
Epoch (UTC): 22 November 2014 19:38:31
Eccentricity: 0.0015440
inclination: 98.1948°
perigee height: 521 km
apogee height: 542 km
right ascension of ascending node: 41.2066°
argument of perigee: 142.2756°
revolutions per day: 15.11396849
mean anomaly at epoch: 359.0246°
orbit number at epoch: 74316

The dashed part of the orbit path shows where the satellite is in the earth's shadow,  

DLR